Dewpoint
31 30 31 36 41 40 39 41 41 44 48 46 46 47 53 54 54 54 54 54 53 54 55 55 55 57 58 60 61 61 63 64 65 66 67 68 68 69 69 69 69 69 68 68
27 30 31 31 36 37 42 41 41 45 48 47 48 46 49 53 53 54 54 54 53 53 54 54 55 54 55 57 58 59 62 63 65 66 67 67 68 68 69 69 69 69 69 69
29 32 31 34 39 41 41 39 40 40 48 50 49 45 48 51 52 53 54 54 54 53 53 54 55 55 54 55 57 59 61 64 65 67 68 68 69 69 68 68 69 69 70 70
26 28 29 32 36 41 37 41 42 44 40 36 48 35 42 47 49 50 52 55 54 54 54 55 55 55 55 55 56 59 62 64 65 67 67 67 66 66 67 68 69 69 70 70
26 30 30 33 38 41 36 42 43 44 41 42 44 39 38 45 45 48 49 52 55 55 55 55 55 55 56 57 57 59 62 64 66 66 66 67 67 68 68 68 68 68 69 70
25 26 23 24 30 41 40 38 39 39 38 35 37 40 35 38 42 46 47 49 52 55 56 56 56 57 57 60 60 61 62 64 66 67 68 68 65 63 63 64 67 68 69 69
11 14 18 26 21 37 37 35 31 31 33 31 42 43 38 42 45 46 45 48 51 54 57 57 57 57 57 59 60 62 64 66 67 66 67 67 65 63 63 63 64 65 68 69
16 21 19 23 20 24 35 34 31 27 29 31 40 35 33 43 49 51 52 54 55 55 58 58 59 61 60 61 60 61 63 65 68 68 67 67 66 64 61 62 63 66 66 67
13 15 18 27 32 32 32 33 34 34 36 32 33 36 40 45 47 47 48 53 55 58 60 58 58 60 62 62 67 66 65 67 69 69 69 68 69 67 63 63 67 68 68 69
10 10 10 12 18 35 29 35 32 33 29 28 31 34 32 38 43 46 51 53 55 59 58 56 57 57 59 63 71 71 70 70 70 70 70 69 68 65 64 65 68 68 67 68
9 8 10 9 10 15 33 34 35 34 32 27 26 28 38 35 42 45 51 54 54 56 59 58 56 63 68 71 70 69 69 68 68 68 68 68 68 69 69 69 68 68 68 67
8 7 5 7 7 13 31 31 34 29 30 31 30 28 33 41 44 45 48 54 55 57 59 59 59 66 68 69 69 67 67 67 66 65 65 65 65 66 66 66 66 67 67 66
7 4 3 3 5 14 7 27 34 34 35 32 29 28 46 48 48 47 46 51 59 59 62 64 65 66 68 68 67 67 65 64 65 66 66 67 66 66 66 66 66 65 65 65
10 6 5 4 4 9 17 25 30 29 28 29 32 26 30 43 46 49 49 52 60 63 65 66 66 67 67 67 66 65 63 64 65 66 66 65 65 64 65 65 64 64 64 64
7 4 6 6 8 11 11 21 26 27 27 26 26 30 31 33 44 48 50 54 61 62 65 65 66 66 66 66 66 64 64 65 66 65 64 64 63 62 61 60 59 58 58 62
14 8 8 5 9 11 18 22 25 25 25 27 27 26 33 47 51 51 51 54 60 61 63 65 65 65 65 66 65 64 65 65 65 64 63 62 61 60 58 57 56 55 55 55
24 14 11 7 15 18 14 15 16 23 27 26 25 28 46 46 47 47 52 57 60 61 63 65 65 64 65 65 64 65 66 65 64 63 62 61 60 58 56 54 53 53 53 53
27 24 20 20 18 13 15 21 26 24 25 34 34 37 42 46 50 49 56 60 62 63 65 65 64 64 65 64 64 66 66 65 64 63 62 61 59 57 55 53 51 50 52 50
28 26 23 21 19 18 14 38 39 36 25 35 37 43 50 52 51 49 56 62 63 64 65 65 65 64 65 65 65 66 65 64 63 62 61 59 58 55 53 51 50 50 49 50
38 24 24 20 17 16 18 43 47 46 29 40 45 46 52 50 42 46 52 63 64 65 65 65 65 65 66 66 66 65 64 63 61 59 57 57 55 53 50 50 49 49 49 48
36 38 28 23 19 20 30 46 48 30 25 45 48 49 53 45 44 50 55 61 64 65 65 66 65 65 66 66 65 64 62 61 59 57 55 55 54 52 50 47 48 48 48 48
36 35 36 40 34 27 47 45 36 39 49 49 52 49 53 53 54 57 59 60 65 65 65 65 65 65 65 65 64 62 60 58 56 54 51 49 51 52 49 47 47 47 47 47
38 40 35 38 36 44 50 46 48 51 50 49 53 54 53 52 56 59 61 62 64 64 65 66 65 63 63 63 62 60 58 55 54 51 50 49 49 49 49 48 48 48 48 47
47 50 43 41 40 43 46 49 50 52 51 52 52 53 53 51 59 60 62 63 63 64 64 63 62 61 61 60 60 58 56 54 52 51 50 49 48 47 47 46 47 47 45 44
46 48 43 42 40 42 43 46 47 51 52 54 54 55 56 58 60 61 61 61 61 61 62 62 61 60 58 56 55 54 54 52 50 48 46 46 43 42 42 41 40 41 44 43
48 43 39 34 40 39 42 48 51 51 52 54 55 58 56 59 60 61 60 59 60 59 59 59 58 56 53 52 51 50 50 48 46 44 44 44 42 43 41 39 40 42 42 43
Wind_Speed
3 3 11 6 13 8 2 3 3 2 3 3 5 10 20 18 19 20 19 19 21 23 26 20 22 21 19 18 19 21 20 20 16 14 12 12 17 14 13 16 13 11 11 14
2 7 8 3 4 8 4 4 2 2 3 2 4 12 17 19 20 27 26 24 24 22 20 19 17 21 23 25 25 19 23 19 21 17 14 9 10 8 8 12 15 14 14 14
9 6 3 1 3 5 4 8 6 3 4 0 5 6 10 12 9 14 21 24 24 27 27 24 21 22 19 22 24 25 23 23 20 16 9 5 3 1 5 8 10 14 13 15
6 4 7 2 8 6 6 11 9 10 3 4 4 7 5 6 14 15 19 21 24 27 24 24 23 20 22 26 19 18 18 20 16 12 13 15 14 14 5 4 8 11 14 17
9 8 6 3 6 10 2 11 4 4 3 3 1 2 6 2 6 18 20 22 24 25 25 28 26 26 23 17 20 21 17 15 11 13 11 3 10 16 12 9 12 8 9 11
5 1 2 5 3 15 6 7 10 6 3 4 5 3 11 3 4 7 13 24 24 25 20 21 23 19 18 13 13 14 15 13 15 13 10 20 24 27 20 14 16 14 9 8
1 4 3 5 4 3 4 4 4 2 0 7 3 3 16 8 12 8 10 10 11 12 14 19 17 20 20 12 15 13 12 15 20 15 16 20 20 20 24 12 11 15 15 10
13 17 8 6 11 6 4 9 7 6 4 3 1 7 6 4 8 6 7 11 8 12 12 6 3 4 3 2 5 7 11 17 21 18 20 22 20 22 20 8 12 8 11 14
11 9 3 8 7 8 3 9 6 5 2 2 3 8 17 10 13 12 12 11 10 11 2 4 7 5 8 7 7 2 11 11 8 15 24 22 25 18 23 16 13 6 9 10
8 6 6 4 4 5 3 6 4 1 6 8 5 8 16 10 13 11 10 12 10 5 7 9 8 8 9 7 7 11 15 13 15 16 14 17 14 14 9 8 10 4 2 3
9 5 3 5 8 12 4 4 4 5 4 6 7 9 12 17 17 19 13 11 12 12 4 7 6 6 9 11 13 17 19 18 17 18 14 14 12 9 9 8 6 5 4 4
12 7 15 15 2 2 5 8 10 7 9 4 3 19 4 14 11 21 14 9 7 8 5 6 7 8 9 15 19 19 20 18 14 14 18 19 19 15 12 11 8 8 9 8
13 6 6 4 1 2 5 6 6 7 5 11 9 19 1 4 12 17 19 12 11 13 10 6 7 8 12 18 19 19 19 17 16 17 21 20 19 18 16 13 10 11 10 9
19 7 10 17 8 5 4 6 7 7 5 7 16 24 15 13 18 17 16 8 12 16 17 13 11 12 14 17 19 20 19 17 19 20 20 19 17 16 15 13 13 13 11 10
15 13 13 15 10 8 8 6 12 15 9 7 17 15 28 22 26 28 17 10 11 16 17 16 17 17 17 17 18 18 17 18 19 19 18 17 17 16 15 15 13 12 12 10
1 4 6 13 7 10 7 9 11 13 6 16 9 17 16 6 12 18 23 19 16 15 16 17 16 16 16 17 18 17 17 17 17 18 17 15 15 15 14 12 11 11 10 9
3 7 5 8 1 5 2 13 16 7 9 7 7 15 7 10 19 27 25 23 21 19 19 19 19 18 16 17 19 19 18 17 18 19 16 15 14 13 13 10 9 9 8 8
3 5 3 4 4 3 7 6 11 10 8 13 11 14 15 10 4 11 17 22 20 16 15 15 15 13 14 14 15 16 17 16 16 16 14 13 13 12 12 10 9 8 7 7
3 6 3 2 4 5 3 4 3 3 7 10 11 5 5 12 9 4 14 18 23 24 23 21 20 17 17 17 15 15 14 14 15 14 13 14 13 11 9 8 8 7 6 5
9 8 3 4 3 5 5 1 1 2 11 6 8 10 19 16 18 12 23 21 21 21 18 19 20 17 17 16 16 16 16 15 14 12 11 13 12 10 9 7 6 4 4 3
3 3 2 4 4 6 4 9 3 6 9 17 9 11 23 21 9 14 25 20 19 18 18 15 17 20 18 16 16 16 15 15 12 11 11 11 10 9 8 7 5 4 3 3
5 4 4 4 3 5 3 2 7 5 10 12 14 11 10 6 6 17 19 18 20 20 19 20 18 15 15 17 18 16 15 13 13 12 11 10 7 6 5 6 4 3 4 6
6 7 4 9 5 3 4 6 8 6 12 10 6 3 5 2 3 11 19 20 22 24 20 17 18 17 14 14 16 18 15 15 14 12 10 8 7 4 3 2 1 2 1 4
5 3 4 2 4 13 16 11 11 6 8 11 4 3 5 9 9 12 17 19 20 20 21 21 23 20 19 15 14 18 17 14 13 11 9 6 4 4 3 1 0 1 1 2
4 6 5 7 16 11 14 16 14 8 8 10 5 7 4 11 12 16 16 16 12 18 21 19 22 22 20 17 17 15 14 14 13 10 7 5 7 4 5 4 2 1 2 1
9 9 11 9 8 4 4 3 4 8 9 10 6 5 8 10 13 15 18 20 21 18 18 20 21 23 21 19 17 13 12 14 13 11 6 5 6 4 2 2 4 7 6 7
Wind_Direction
28 157 236 207 221 251 166 203 262 277 212 151 209 197 188 188 202 206 214 216 221 223 221 210 216 222 212 209 206 207 202 204 187 191 200 216 226 224 223 227 234 234 239 240
105 220 238 222 224 228 181 158 255 16 118 233 220 233 213 195 202 200 206 218 226 235 244 237 210 205 209 214 214 205 209 197 198 198 210 207 200 216 216 219 227 230 238 238
187 219 166 297 308 224 160 193 171 201 197 143 309 260 212 227 234 210 214 212 218 225 232 240 236 222 211 213 217 212 207 200 197 195 162 142 167 252 209 227 235 238 232 241
217 234 253 292 263 183 226 201 157 149 111 307 18 308 223 199 227 235 219 218 215 218 221 231 230 228 215 220 213 212 204 199 192 166 188 210 221 232 266 261 243 240 227 232
198 173 166 208 250 187 217 172 166 130 93 347 26 347 276 207 208 230 227 225 225 221 215 218 223 226 221 215 207 209 201 190 166 162 197 224 9 7 347 318 286 257 252 244
194 306 188 191 271 195 113 81 58 60 46 323 333 208 280 250 201 236 225 232 230 225 225 219 218 224 229 209 195 197 196 165 141 163 109 77 54 1 332 339 341 323 302 297
283 220 230 197 258 126 133 104 335 319 342 243 329 212 250 255 252 258 260 272 269 263 250 232 213 220 229 210 201 194 164 148 150 177 147 124 86 43 291 255 313 318 316 311
211 231 196 197 215 230 187 179 210 230 232 267 263 247 265 246 261 243 265 302 290 258 248 280 246 86 93 132 226 229 175 184 190 178 119 121 107 250 252 252 244 242 270 299
180 224 232 215 169 167 181 210 177 108 68 291 239 282 289 253 258 269 276 283 260 261 276 72 86 117 114 80 52 81 175 190 169 145 141 174 199 203 214 226 253 239 304 310
203 194 206 213 110 47 205 144 166 136 222 232 264 279 253 267 227 231 261 251 241 258 106 107 95 95 105 93 65 88 113 114 95 116 152 194 204 187 212 241 266 201 236 358
158 181 191 157 198 188 152 187 78 127 150 223 253 261 232 256 213 195 222 225 233 252 230 181 141 112 90 85 87 85 90 92 98 112 127 130 134 137 144 145 130 101 89 69
190 172 242 237 136 171 162 204 175 198 221 203 224 266 273 248 196 186 190 196 209 222 197 168 172 139 114 102 94 96 99 106 108 103 98 94 92 91 87 82 78 71 72 65
172 199 234 320 39 99 205 193 155 126 126 215 220 262 292 245 175 184 181 175 176 159 150 147 138 126 117 109 106 105 106 112 113 104 95 93 94 91 87 85 79 76 76 67
159 152 185 214 210 163 186 197 185 179 202 207 227 253 253 224 220 191 196 179 150 154 153 158 147 131 120 116 116 117 115 118 109 100 100 102 104 101 96 90 80 72 68 73
172 210 200 229 220 204 226 199 186 201 203 213 261 243 262 244 222 208 182 172 171 163 157 159 146 144 138 128 119 114 116 113 111 114 117 122 116 109 101 91 83 77 65 68
49 222 188 243 184 214 208 253 211 214 240 246 255 273 269 261 167 183 185 188 193 183 164 154 152 150 142 137 132 126 120 123 124 121 121 115 106 95 88 85 77 72 70 66
138 140 142 210 75 150 301 252 236 195 203 200 253 257 226 215 204 194 181 181 186 189 174 166 166 160 153 151 145 142 142 144 132 124 121 123 118 109 97 92 86 77 72 71
138 120 147 187 128 242 257 326 297 228 235 221 266 261 247 235 231 166 168 172 176 173 169 169 167 163 154 156 153 149 148 137 128 127 140 136 117 117 117 106 92 82 75 73
147 140 124 177 203 291 289 32 350 350 247 237 255 259 185 142 118 173 179 180 176 182 182 177 170 167 164 167 160 148 133 138 142 154 160 137 132 124 112 98 90 84 86 75
68 72 138 158 196 226 226 303 188 143 275 350 247 196 162 151 173 205 191 184 186 183 174 159 165 166 161 162 154 149 152 155 158 155 137 118 118 119 109 96 88 81 78 76
23 20 155 176 217 272 240 312 135 175 274 320 306 219 177 189 206 176 179 188 181 163 164 156 161 168 164 152 150 155 158 165 150 135 117 111 112 112 105 94 87 86 58 6
191 173 178 135 178 252 182 150 185 278 301 303 312 236 252 325 147 154 160 159 157 156 154 157 163 154 148 147 149 157 160 146 134 122 107 93 98 113 107 97 89 56 33 11
213 199 194 201 207 211 195 252 275 283 287 299 308 257 196 281 112 145 146 151 157 159 155 145 144 131 133 141 149 148 147 142 134 121 117 118 120 116 78 52 331 319 308 301
244 192 216 272 235 247 256 247 254 255 272 297 252 133 135 169 159 148 144 146 147 139 146 141 137 140 142 144 146 142 147 141 133 137 137 141 137 86 89 150 242 221 264 291
205 164 212 258 274 268 267 257 267 288 312 300 223 171 130 142 143 143 137 137 128 132 133 140 140 140 135 131 127 134 140 143 143 138 136 126 98 95 112 100 47 5 314 238
194 204 190 229 232 187 246 271 310 313 318 315 282 233 175 157 158 152 144 140 134 133 124 132 132 131 131 130 129 134 153 158 144 119 131 113 125 126 132 136 95 61 67 88